Regional Weather Roundup
Issued by NWS Newport/Morehead, NC

Current Version | Previous Version | Text Only | Print | Product List | Glossary On
Versions: 1 2 3 4 5 6 7 8 9 10 11 12 13 14 15 16 17 18 19 20 21 22 23 24 25 26 27 28 29 30 31 32 33 34 35 36 37 38 39 40 41 42 43 44 45 46 47 48 49 50
860
ASUS42 KMHX 011525
RWRMHX
WEATHER ROUNDUP FOR EASTERN NORTH CAROLINA
NATIONAL WEATHER SERVICE NEWPORT/MOREHEAD CITY NC
1000 AM EST WED MAR 01 2017

NOTE: "FAIR" INDICATES FEW OR NO CLOUDS BELOW 12,000 FEET
WITH NO SIGNIFICANT WEATHER AND/OR OBSTRUCTIONS TO VISIBILITY

NCZ015>017-031-032-045>047-102-103-011600-
NORTH COAST

CITY           SKY/WX    TMP DP  RH WIND       PRES   REMARKS
EDENTON        CLOUDY    74  65  75 SW15G21   29.97F
ELIZABETH CITY CLOUDY    71  65  81 S15G25    29.96F
KITTY HAWK     NOT AVBL
MANTEO         CLOUDY    70  65  83 SW24G31   29.99F

$$

NCZ045>047-081-094-103-104-011600-
CENTRAL COAST

CITY           SKY/WX    TMP DP  RH WIND       PRES   REMARKS
FRISCO         CLOUDY    73  65  75 SW17G28   30.06F HAZE

$$

NCZ095-097-098-100-101-011600-
SOUTHERN COAST

CITY           SKY/WX    TMP DP  RH WIND       PRES   REMARKS
BEAUFORT       PTSUNNY   71  66  84 S21       30.07F
CEDAR ISLAND   NOT AVBL
JACKSONVILLE   PTSUNNY   73  68  84 S15G25    30.05F
PINEY ISLAND   CLOUDY   N/A N/A N/A SW24G36   30.05F
WILMINGTON     CLOUDY    72  68  87 SW18G31   30.07F


$$

NCZ011>013-027>030-043-044-078>080-089-090>093-098-011600-
COASTAL PLAIN

CITY           SKY/WX    TMP DP  RH WIND       PRES   REMARKS
AHOSKIE          N/A     71  64  80 S8G24     29.93F
CLINTON        CLOUDY    75  65  71 SW12G20   30.02F
ELIZABETHTOWN  MOSUNNY   75  65  70 SW17G25   30.04F
GOLDSBORO      CLOUDY    75  68  78 SW21G30   29.97F
GREENVILLE     CLOUDY    75  66  73 SW21G29   30.00S
HAVELOCK       CLOUDY    74  66  76 SW14G30   30.06F
KENANSVILLE    PTSUNNY   75  64  69 SW7G23    30.01F
KINSTON        CLOUDY    75  66  73 S21G28    30.00F
NEW BERN       CLOUDY    74  67  78 SW25G37   30.04F
RICHLANDS      CLOUDY    74  67  78 SW18G29   30.04F
ROCKY MOUNT    CLOUDY    73  65  75 SW16G30   29.96F
WASHINGTON     CLOUDY    73  65  76 SW15G26   29.99F
WHITEVILLE     MOSUNNY   76  65  66 S20       30.05F

$$

AMZ130-135-150-152-154-156-158-170-250-252-270-ANZ085-086-088-633-658-670-011600-
MARINE OBSERVATIONS

STATION/POSITION TIME  TEMP    WIND        PRES    WAVE   SWELL
                       AIR SEA DIR/SP/G            HT/PER HT/PER
                 (UTC) (F)     (DEG/KT/KT) (MB)    (FT/S) (FT/S)
CHESAPEAKE LIGHT NOT AVBL
64 E VA BEACH    1450   58 51  210/ 19/ 23 1014.8    5/ 7
DUCK             1500   69 49  210/ 20/ 23 1014.2
2 E DUCK         1500      50                N/A     3/ 7
OREGON INLET     1500   64 61  200/ 20/ 24 1016.3
13E OREGON INLT  NOT AVBL
HATTERAS CG      1500   71 65  210/ 16/ 21 1017.5
DIAMOND BUOY     1450   72 74  210/ 23/ 29 1017.9    9/ 7   2/15
CAPE LOOKOUT     1500   70     200/ 16/ 21 1018.2
BEAUFORT LAB     1500   68 63  200/ 17/ 22 1017.3
30 SE NEW RVR IN 1508   68     210/ 14/ 17 1019.0
30 SE NEW RVR IN 1443      65                N/A     6/ 6
27 SE WRIGHTSVLE 1508   68 62  190/ 14/ 19 1018.6
5 SE WRIGHTSVLE  1508   62 59  230/ 10/ 16 1018.8
225 S CAPE HAT   1450   71 71  160/ 16/ 17 1023.1    4/ 6   2/16
41 SE CHARLESTON 1450   71 69  220/ 17/ 19 1019.3    4/ 7   2/ 7

$$




USA.gov is the U.S. government's official web portal to all federal, state and local government web resources and services.